• In Netherlands
  • List of Countries
  • For 7 days
  • Water Temperature
  • Satellite Maps
  • Weather Map
  • Weather Widgets
  • user-avatar
    Login

    Hourly Weather Yelsk

    Today, 14 November, Wednesday

    Time Temperature Precipitation Wind Pressure Humidity
    00:00 -4°C° 0 mm 5 mps 756 mmHg 62%
    01:00 -4°C° 0 mm 5 mps 755 mmHg 62%
    02:00 -4°C° 0 mm 5 mps 755 mmHg 62%
    03:00 -4°C° 0.1 mm 5 mps 754 mmHg 63%
    04:00 -4°C° 0.1 mm 5 mps 753 mmHg 64%
    05:00 -4°C° 0.1 mm 5 mps 753 mmHg 65%
    06:00 -4°C° 1.1 mm 5 mps 752 mmHg 72%
    07:00 -4°C° 1.1 mm 5 mps 752 mmHg 80%
    08:00 -4°C° 1.1 mm 5 mps 752 mmHg 87%
    09:00 -2°C° 1.2 mm 5 mps 751 mmHg 89%
    10:00 -2°C° 1.2 mm 5 mps 751 mmHg 91%
    11:00 -2°C° 1.2 mm 4 mps 751 mmHg 93%
    12:00 -1°C° 0.4 mm 4 mps 751 mmHg 94%
    13:00 +1°C° 0.4 mm 3 mps 750 mmHg 94%
    14:00 +1°C° 0.4 mm 3 mps 750 mmHg 95%
    15:00 +2°C° 0.2 mm 3 mps 750 mmHg 96%
    16:00 +2°C° 0.2 mm 3 mps 750 mmHg 96%
    17:00 +3°C° 0.2 mm 2 mps 750 mmHg 97%
    18:00 +4°C° 0.1 mm 2 mps 750 mmHg 97%
    19:00 +4°C° 0.1 mm 2 mps 750 mmHg 97%
    20:00 +4°C° 0.1 mm 2 mps 750 mmHg 97%
    21:00 +4°C° 0.1 mm 2 mps 750 mmHg 97%
    22:00 +4°C° 0.1 mm 2 mps 750 mmHg 97%
    23:00 +4°C° 0.1 mm 2 mps 751 mmHg 97%

    Tomorrow, 15 November, Thursday

    Time Temperature Precipitation Wind Pressure Humidity
    00:00 +4°C° 0.1 mm 2 mps 751 mmHg 97%
    01:00 +3°C° 0.1 mm 2 mps 751 mmHg 97%
    02:00 +3°C° 0.1 mm 2 mps 752 mmHg 97%
    03:00 +3°C° 0.1 mm 2 mps 752 mmHg 96%
    04:00 +2°C° 0.1 mm 2 mps 752 mmHg 96%
    05:00 +1°C° 0.1 mm 3 mps 752 mmHg 96%
    06:00 +1°C° 0.1 mm 3 mps 753 mmHg 96%
    07:00 +1°C° 0.1 mm 3 mps 754 mmHg 95%
    08:00 0°C° 0.1 mm 3 mps 755 mmHg 95%
    09:00 +1°C° 0.1 mm 3 mps 755 mmHg 94%
    10:00 +2°C° 0.1 mm 2 mps 756 mmHg 93%
    11:00 +2°C° 0.1 mm 2 mps 756 mmHg 92%
    12:00 +2°C° 0 mm 2 mps 756 mmHg 92%
    13:00 +3°C° 0 mm 2 mps 757 mmHg 91%
    14:00 +3°C° 0 mm 2 mps 757 mmHg 91%
    15:00 +3°C° 0 mm 2 mps 758 mmHg 92%
    16:00 +3°C° 0 mm 2 mps 758 mmHg 93%
    17:00 +3°C° 0 mm 1 mps 758 mmHg 94%
    18:00 +3°C° 0 mm 1 mps 759 mmHg 94%
    19:00 +3°C° 0 mm 1 mps 759 mmHg 95%
    20:00 +3°C° 0 mm 1 mps 760 mmHg 95%
    21:00 +3°C° 0 mm 1 mps 760 mmHg 95%
    22:00 +3°C° 0 mm 1 mps 760 mmHg 95%
    23:00 +3°C° 0 mm 1 mps 760 mmHg 95%

    Day after tomorrow, 16 November, Friday

    Time Temperature Precipitation Wind Pressure Humidity
    00:00 +2°C° 0 mm 1 mps 760 mmHg 95%
    01:00 +2°C° 0 mm 1 mps 761 mmHg 95%
    02:00 +2°C° 0 mm 1 mps 761 mmHg 94%
    03:00 +2°C° 0 mm 1 mps 761 mmHg 94%
    04:00 +2°C° 0 mm 1 mps 761 mmHg 94%
    05:00 -1°C° 0 mm 2 mps 761 mmHg 94%
    06:00 -1°C° 0 mm 2 mps 762 mmHg 92%
    07:00 -1°C° 0 mm 2 mps 762 mmHg 91%
    08:00 -2°C° 0 mm 2 mps 763 mmHg 89%
    09:00 -1°C° 0 mm 2 mps 763 mmHg 84%
    10:00 +1°C° 0 mm 2 mps 763 mmHg 78%
    11:00 +1°C° 0 mm 2 mps 763 mmHg 73%
    12:00 +1°C° 0 mm 3 mps 763 mmHg 71%
    13:00 +1°C° 0 mm 3 mps 763 mmHg 69%
    14:00 +1°C° 0 mm 3 mps 763 mmHg 67%
    15:00 +1°C° 0 mm 2 mps 763 mmHg 73%
    16:00 -1°C° 0 mm 2 mps 763 mmHg 79%
    17:00 -2°C° 0 mm 2 mps 764 mmHg 85%
    18:00 -3°C° 0 mm 2 mps 764 mmHg 85%
    19:00 -3°C° 0 mm 2 mps 764 mmHg 85%
    20:00 -3°C° 0 mm 2 mps 764 mmHg 84%
    21:00 -4°C° 0 mm 2 mps 764 mmHg 83%
    22:00 -4°C° 0 mm 2 mps 764 mmHg 81%
    23:00 -4°C° 0 mm 2 mps 764 mmHg 80%

    17 November, Saturday

    Time Temperature Precipitation Wind Pressure Humidity
    00:00 -4°C° 0 mm 2 mps 764 mmHg 78%
    01:00 -5°C° 0 mm 2 mps 764 mmHg 76%
    02:00 -5°C° 0 mm 2 mps 764 mmHg 75%
    03:00 -5°C° 0 mm 2 mps 764 mmHg 73%
    04:00 -5°C° 0 mm 2 mps 764 mmHg 72%
    05:00 -5°C° 0 mm 2 mps 764 mmHg 70%
    06:00 -5°C° 0 mm 2 mps 764 mmHg 69%
    07:00 -5°C° 0 mm 2 mps 764 mmHg 69%
    08:00 -5°C° 0 mm 2 mps 764 mmHg 68%
    09:00 -4°C° 0 mm 2 mps 764 mmHg 62%
    10:00 -2°C° 0 mm 2 mps 764 mmHg 57%
    11:00 -1°C° 0 mm 2 mps 764 mmHg 51%
    12:00 -1°C° 0 mm 2 mps 764 mmHg 50%
    13:00 +1°C° 0 mm 2 mps 763 mmHg 50%
    14:00 +2°C° 0 mm 2 mps 763 mmHg 49%
    15:00 -1°C° 0 mm 2 mps 763 mmHg 56%
    16:00 -2°C° 0 mm 2 mps 762 mmHg 62%
    17:00 -3°C° 0 mm 2 mps 762 mmHg 69%
    18:00 -3°C° 0 mm 2 mps 762 mmHg 69%
    19:00 -2°C° 0 mm 1 mps 762 mmHg 70%
    20:00 -2°C° 0 mm 1 mps 762 mmHg 70%
    21:00 -2°C° 0 mm 1 mps 761 mmHg 71%
    22:00 -4°C° 0 mm 2 mps 761 mmHg 71%
    23:00 -4°C° 0 mm 2 mps 761 mmHg 71%

    18 November, Sunday

    Time Temperature Precipitation Wind Pressure Humidity
    00:00 -4°C° 0 mm 2 mps 760 mmHg 72%
    01:00 -3°C° 0 mm 2 mps 759 mmHg 73%
    02:00 -4°C° 0 mm 3 mps 759 mmHg 74%
    03:00 -4°C° 0 mm 3 mps 758 mmHg 75%
    04:00 -2°C° 0 mm 3 mps 757 mmHg 77%
    05:00 -2°C° 0 mm 4 mps 756 mmHg 78%
    06:00 -2°C° 0.4 mm 4 mps 756 mmHg 82%
    07:00 -2°C° 0.4 mm 4 mps 755 mmHg 86%
    08:00 -1°C° 0.4 mm 4 mps 754 mmHg 90%
    09:00 -1°C° 0.2 mm 4 mps 754 mmHg 90%
    10:00 0°C° 0.2 mm 4 mps 753 mmHg 90%
    11:00 0°C° 0.2 mm 4 mps 753 mmHg 90%
    12:00 0°C° 0.1 mm 4 mps 752 mmHg 91%
    13:00 +1°C° 0.1 mm 3 mps 751 mmHg 92%
    14:00 +1°C° 0.1 mm 3 mps 751 mmHg 93%
    15:00 +1°C° 0.1 mm 3 mps 750 mmHg 93%
    16:00 +1°C° 0.1 mm 3 mps 750 mmHg 94%
    17:00 0°C° 0.1 mm 3 mps 750 mmHg 94%
    18:00 0°C° 0.1 mm 3 mps 750 mmHg 95%
    19:00 0°C° 0.1 mm 3 mps 749 mmHg 95%
    20:00 0°C° 0.1 mm 3 mps 749 mmHg 95%
    21:00 0°C° 0.1 mm 3 mps 749 mmHg 95%
    22:00 0°C° 0.1 mm 3 mps 749 mmHg 95%
    23:00 0°C° 0.1 mm 3 mps 749 mmHg 95%

    19 November, Monday

    Time Temperature Precipitation Wind Pressure Humidity
    00:00 0°C° 0.2 mm 3 mps 749 mmHg 94%
    01:00 0°C° 0.2 mm 3 mps 749 mmHg 93%
    02:00 0°C° 0.2 mm 3 mps 749 mmHg 93%
    03:00 0°C° 0.2 mm 3 mps 748 mmHg 93%
    04:00 -1°C° 0.2 mm 3 mps 748 mmHg 93%
    05:00 -1°C° 0.2 mm 3 mps 748 mmHg 94%
    06:00 -1°C° 0.1 mm 3 mps 748 mmHg 94%
    07:00 -1°C° 0.1 mm 3 mps 748 mmHg 95%
    08:00 -1°C° 0.1 mm 3 mps 748 mmHg 95%
    09:00 -1°C° 0.1 mm 3 mps 749 mmHg 94%
    10:00 0°C° 0.1 mm 3 mps 749 mmHg 93%
    11:00 0°C° 0.1 mm 3 mps 749 mmHg 91%
    12:00 +1°C° 0.1 mm 3 mps 749 mmHg 91%
    13:00 +1°C° 0.1 mm 3 mps 749 mmHg 91%
    14:00 +1°C° 0.1 mm 3 mps 749 mmHg 91%
    15:00 0°C° 0.1 mm 3 mps 749 mmHg 91%
    16:00 0°C° 0.1 mm 3 mps 750 mmHg 92%
    17:00 -1°C° 0.1 mm 4 mps 750 mmHg 92%
    18:00 -1°C° 0.1 mm 4 mps 750 mmHg 92%
    19:00 -2°C° 0.1 mm 4 mps 750 mmHg 92%
    20:00 -2°C° 0.1 mm 4 mps 751 mmHg 92%
    21:00 -2°C° 0.1 mm 4 mps 751 mmHg 92%
    22:00 -1°C° 0.1 mm 3 mps 751 mmHg 93%
    23:00 -2°C° 0.1 mm 3 mps 751 mmHg 93%
    Show more